Location: Unspecified
(0.0000°N, 0.0000°E)
Time: 21:24:24
(UTC+00:00)

STARLINK-32457 - Visible Passes

Search period start: 12 January 2025 00:00
Search period end: 22 January 2025 00:00
Orbit: 446 x 448 km, 53.2° (Epoch: 12 January)

Date Brightness Start Highest point End Pass type
(mag) Time Alt. Az. Time Alt. Az. Time Alt. Az.
17 Jan 3.5 19:34:42 10° NNW 19:37:28 51° N 19:37:28 51° N visible
18 Jan 3.6 18:56:28 10° NNW 18:59:47 39° NE 19:03:06 10° SE visible
19 Jan 6.6 19:57:04 10° WSW 19:58:26 12° SW 19:59:49 10° SSW visible
20 Jan 6.2 19:17:23 10° WNW 19:20:00 19° SW 19:22:37 10° S visible
21 Jan 6.9 05:22:40 10° SE 05:23:45 11° SE 05:24:49 10° ESE visible
21 Jan 5.3 18:38:23 10° WNW 18:41:34 32° SW 18:44:46 10° S visible
